Saskatoon John G. Diefenbaker International Airport

Jump to: basic info | weather | frequencies | runways | comments

Related pages: nearby airports | nearby navaids | notams | map

Basic information (top)

Codes: YXE CYXE
Location: lon 52.170799, lat -106.699997, elev 1,653 ft / 504 m msl
Status: medium_airport
Scheduled airline service: yes
Links: Wikipedia Mobile

Weather (top)

Current conditions (rec'd 2014/08/31 03:00Z):

CYXE 310300Z 28005KT 15SM FEW040 12/09 A2966 RMK SC1 SLP052 DENSITY ALT 2000FT

Airport forecast (rec'd 2014/08/30 00:39Z):

TAF CYXE 302338Z 3100/3124 30015KT P6SM SCT050 BKN300 
      BECMG 3101/3103 30008KT 
     FM310800 23005KT P6SM SKC 
      TEMPO 3108/3114 2SM BR PROB30 3110/3114 1/2SM FG VV003 
     FM311600 28008KT P6SM FEW040 PROB30 3120/3124 VRB15G25KT 4SM TSRA BKN030CB 
      RMK NXT FCST BY 310600Z

Frequencies (top)

Verify before use: may be inaccurate or out of date.

A/D: 119.9 MHz (APP/DEP)
A/G: 118.3 MHz (MF SASKATOON RDO)
ATIS: 128.4 MHz (ATIS)
CNTR: 134.325 MHz (WINNIPEG CNTR)
GND: 121.9 MHz (GND)
RCO: 122.5 MHz (EDMONTON RDO)
TWR: 118.3 MHz (TWR)

Runways (top)

09/27: 8,300 x 200 ft (2,530 x 61 m) — paved — lighted

15/33: 6,200 x 150 ft (1,890 x 46 m) — paved — lighted

Latest comments (top)

Timmies: Timmies in the main terminal. Park at ... [read]

More... (top)

See also NOTAMs and nearby airports and navaids, or visit the Saskatoon John G. Diefenbaker International Airport page at the main OurAirports website..